Other Public Products
Issued by NWS Grand Forks, ND

Home | Current Version | Previous Version | Text Only | Print | Product List | Glossary On
Versions: 1 2 3 4 5 6 7 8 9 10 11 12 13 14 15 16 17 18 19 20 21 22 23 24 25 26 27 28 29 30 31 32 33 34 35 36 37 38 39 40 41 42 43 44 45 46 47 48 49 50
000
FPUS83 KFGF 011231
OPUFGF
PRAIRIE TO PINES WEATHER ROUNDUP
NATIONAL WEATHER SERVICE EASTERN NORTH DAKOTA/GRAND FORKS ND
700 AM CDT SAT AUG 01 2015

 **SATELLITE DATA USED TO AUGMENT SKY COVER AT AUTOMATED STATIONS**
 *****  WEATHER ACROSS EASTERN NORTH DAKOTA  *****

CITY           SKY/WX    TMP DP  RH WIND       PRES   REMARKS
GRAND FORKS    PTCLDY    56  52  86 W3        29.94F
6HR MIN TEMP:  53; 6HR MAX TEMP:  59;

GRAND FORKS AF CLEAR     58  53  84 W3        29.95S
GRAND CITY NWS   N/A     54 N/A N/A W3          N/A
BUXTON         NOT AVBL
DEVILS LAKE    PTCLDY    61  54  77 CALM      29.96S
6HR MIN TEMP:  57; 6HR MAX TEMP:  64;

FARGO          PTCLDY    59  54  83 CALM      29.96F
6HR MIN TEMP:  57; 6HR MAX TEMP:  62;

WAHPETON ARPT  SUNNY     57  54  88 CALM      29.98S
$$

 *****  WEATHER ACROSS CENTRAL AND WESTERN NORTH DAKOTA  *****

CITY           SKY/WX    TMP DP  RH WIND       PRES   REMARKS
JAMESTOWN      PTCLDY    58  56  93 CALM      29.97F
6HR MIN TEMP:  57; 6HR MAX TEMP:  62;

BISMARCK       CLEAR     57  55  93 E5        29.95F
6HR MIN TEMP:  56; 6HR MAX TEMP:  65; 6HR PCP:  0.01;

MINOT          MOCLDY    56  52  86 CALM      29.94F
6HR MIN TEMP:  52; 6HR MAX TEMP:  63;

MINOT AFB      PTCLDY    53  52  99 CALM      29.93F
6HR MIN TEMP:  52; 6HR MAX TEMP:  55;

GARRISON         N/A     60  54  80 NE6       29.94F
6HR MIN TEMP:  55; 6HR MAX TEMP:  60;

WILLISTON      CLEAR     59  54  83 N6        29.94F
6HR MIN TEMP:  59; 6HR MAX TEMP:  67;

DICKINSON      CLEAR     53  48  83 E5        29.92S
6HR MIN TEMP:  52; 6HR MAX TEMP:  59;

HETTINGER      CLEAR     58  50  75 W3        29.96F
6HR MIN TEMP:  57; 6HR MAX TEMP:  67;

$$

 *****  OTHER OBSERVATIONS NORTHEAST NORTH DAKOTA  *****

CITY           SKY/WX    TMP DP  RH WIND       PRES   REMARKS
WALHALLA       FAIR      59  55  88 MISG      29.93F
LANGDON        FAIR      50  50 100 CALM      29.96F
CAVALIER       FAIR      59  54  82 W6        29.93S
GRAFTON        FAIR      57  55  94 SW3       29.94F
CANDO          FAIR      55  54  94 CALM      29.97S
FORT TOTTEN      N/A     57  53  86 CALM      29.95S
ROLLA          FAIR      54  54 100 SW6       29.97F
RUGBY          NOT AVBL
 ***** THE ABOVE OBSERVATIONS ARE NON NWS ARE NOT QUALITY
        CONTROLLED AND MAY MIS-REPORT RAIN FOR SNOW...
$$

 *****  OTHER OBSERVATIONS SOUTHEAST NORTH DAKOTA *****

CITY           SKY/WX    TMP DP  RH WIND       PRES   REMARKS
COOPERSTOWN    NOT AVBL
VALLEY CITY    FAIR      57  57 100 CALM      29.98F
OAKES            N/A     59  59 100 NE3       29.97F
GWINNER          N/A     61  61 100 SW7       29.99S
SHEYENNE NWR     N/A     54  53  98 CALM      29.95
BUFFALO        NOT AVBL
WYNDMERE         N/A     57  55  94 N1          N/A
 ***** THE ABOVE OBSERVATIONS ARE NON NWS ARE NOT QUALITY
       CONTROLLED AND MAY MIS-REPORT RAIN FOR SNOW...
$$

  *****  WEATHER ACROSS NORTHERN MINNESOTA  *****

CITY           SKY/WX    TMP DP  RH WIND       PRES   REMARKS
FLAG ISLAND    CLEAR     63  54  72 W13       29.88S
WARROAD        CLEAR     57  54  88 W5        29.92S
ROSEAU         CLEAR     57  52  82 W3        29.92S
HALLOCK        CLEAR     52  50  93 S3        29.93S
THF RVR FALLS  CLEAR     55  52  88 CALM      29.95F
6HR MIN TEMP:  54; 6HR MAX TEMP:  59;

HALSTAD        NOT AVBL
FOSSTON        CLEAR     54  52  94 S5        29.97S
BAUDETTE       CLEAR     56  51  84 W6        29.91S
6HR MIN TEMP:  53; 6HR MAX TEMP:  57;

WASKISH        CLEAR     64  57  77 W3        29.93S
CROOKSTON      CLEAR     55  54  94 CALM      29.96R
$$
  *****  WEATHER ACROSS CENTRAL AND WEST MINNESOTA  *****

CITY           SKY/WX    TMP DP  RH WIND       PRES   REMARKS
BEMIDJI        CLEAR     56  52  84 N6        29.97R
PARK RAPIDS    CLEAR     54  50  86 W5        29.98S
6HR MIN TEMP:  51; 6HR MAX TEMP:  58;

WADENA         PTCLDY    59  57  94 CALM      29.97F
DETROIT LAKES  PTCLDY    61  59  94 CALM      30.00R
MOORHEAD       PTCLDY    57  55  94 SE3       29.98S
FERGUS FALLS   CLEAR     59  57  94 CALM      29.98S
ELBOW LAKE     FAIR      63  62  98 CALM      29.99R
MORRIS MN      CLEAR     61  59  94 N3        29.97S
STAPLES        MOCLDY    57  55  94 CALM      29.98S
WHEATON        CLEAR     59  57  94 CALM      29.99S
$$
  *****  WEATHER ELSEWHERE ACROSS MINNESOTA  *****

CITY           SKY/WX    TMP DP  RH WIND       PRES   REMARKS
DULUTH         SUNNY     60  51  72 W6        29.94S
6HR MIN TEMP:  54; 6HR MAX TEMP:  61;

INTRNTL FALLS  SUNNY     55  51  86 W6        29.90S
6HR MIN TEMP:  52; 6HR MAX TEMP:  56;

ELY            SUNNY     55  50  82 W5        29.92S
CLOQUET        SUNNY     61  50  67 W6        29.95S
BRAINERD       CLEAR     55  54  96 CALM      29.98R
6HR MIN TEMP:  52; 6HR MAX TEMP:  57;

HIBBING        SUNNY     50  47  89 CALM      29.94S
6HR MIN TEMP:  45; 6HR MAX TEMP:  62;

ALEXANDRIA     CLEAR     58  58 100 CALM      30.00S
6HR MIN TEMP:  58; 6HR MAX TEMP:  66;

SAINT CLOUD    CLEAR     60  58  92 CALM      29.97S
6HR MIN TEMP:  55; 6HR MAX TEMP:  64;

MINNEAPOLIS    PTCLDY    68  60  75 SW5       29.96S
6HR MIN TEMP:  66; 6HR MAX TEMP:  72;

$$

  *****  WEATHER ACROSS SOUTH DAKOTA  *****

CITY           SKY/WX    TMP DP  RH WIND       PRES   REMARKS
SIOUX FALLS    PTCLDY    65  63  93 NW3       30.02R
6HR MIN TEMP:  62; 6HR MAX TEMP:  72;

BROOKINGS      CLEAR     61  55  82 CALM      30.03S
WATERTOWN      CLEAR     62  57  83 CALM      30.00S
6HR MIN TEMP:  59; 6HR MAX TEMP:  66;

HURON          CLEAR     62  61  96 SE6       29.97F
6HR MIN TEMP:  59; 6HR MAX TEMP:  70;

SISSETON         N/A     58  55  90 CALM      29.97S
ABERDEEN       PTCLDY    60  56  86 CALM      29.96F
6HR MIN TEMP:  55; 6HR MAX TEMP:  63;

MITCHELL       CLEAR     61  61 100 SE5       30.00R
PIERRE         PTCLDY    66  60  81 S5        29.94F
6HR MIN TEMP:  63; 6HR MAX TEMP:  73;

MOBRIDGE       CLEAR     63  58  83 E9        29.93S
RAPID CITY     PTCLDY    62  56  80 CALM      30.00F
6HR MIN TEMP:  61; 6HR MAX TEMP:  69; 6HR PCP:  0.01;

$$

  *****  SOME WEATHER IN NEARBY STATES *****

CITY           SKY/WX    TMP DP  RH WIND       PRES   REMARKS
GLASGOW MT     CLEAR     57  50  77 E9        29.94R
6HR MIN TEMP:  57; 6HR MAX TEMP:  68;

GREAT FALLS MT CLEAR     55  35  47 W6        30.04S
6HR MIN TEMP:  53; 6HR MAX TEMP:  68;

CHEYENNE WY    CLEAR     53  48  83 W6        30.23S
6HR MIN TEMP:  53; 6HR MAX TEMP:  66;

SCOTTSBLUFF NE CLEAR     63  56  78 E7        30.09S
6HR MIN TEMP:  63; 6HR MAX TEMP:  66;

OMAHA NE       MOCLDY    68  66  93 CALM      30.04R
6HR MIN TEMP:  68; 6HR MAX TEMP:  74;

DES MOINES IA  PTCLDY    69  65  86 S5        30.03R
6HR MIN TEMP:  68; 6HR MAX TEMP:  75;

DAVENPORT IA   SUNNY     61  59  93 CALM      30.03S
6HR MIN TEMP:  57; 6HR MAX TEMP:  62;

CHICAGO IL     SUNNY     66  55  67 W7        29.99R
6HR MIN TEMP:  64; 6HR MAX TEMP:  69;

EAU CLAIRE WI  PTSUNNY   63  57  81 SW3       29.96S
6HR MIN TEMP:  60; 6HR MAX TEMP:  63;

LA CROSSE WI   CLOUDY    67  60  78 S3        29.97S
6HR MIN TEMP:  63; 6HR MAX TEMP:  67;

$$

  *****  SOME NATIONAL WEATHER *****

CITY           SKY/WX    TMP DP  RH WIND       PRES   REMARKS
LA GUARDIA NY  MOSUNNY   79  60  52 SW6       29.79S



USA.gov is the U.S. government's official web portal to all federal, state and local government web resources and services.